NOAA 16 DEB, 41273

Orbit data source: Space-Track

NOAA 16 DEB, 41273 is space debris in SSO originally from a launch on Thu, 21 Sep 2000 UTC launched from the Air Force Western Test Range (AFWTR). Debris objects in space refer to the collection of defunct objects orbiting the Earth. Examples of debris include non-operational satellites, rocket bodies, and fragments generated from explosions, collisions, or faulty payload assembly.

Loading next visibility...
Identifier
41273, 2000-055FZ
Orbit
SSO
Country
Flag of USUS
Related business
Manufacturer
Unknown
Mission
Spacecraft
Bus & Motor
Unknown
Mass
Unknown
Launch date (UTC)
2000-09-21 (25 years ago)
Launch vehicle
Unknown
Launch site
Air Force Western Test Range (AFWTR)
Object type
Payload
Rocket body
Debris
Shape & HBR
Unknown
Radar Cross Section
Small (<0.1 m²)

Expand to show TLE details & history
Last TLE update: 22 hours ago

TLE from 22 hours ago
0 NOAA 16 DEB
1 41273U 00055FZ  25260.11019075  .00012733  00000-0  22612-2 0  9997
2 41273  98.9344 130.9441 0039924  56.7216 303.7801 14.66818906510133
Epoch: 2025-09-17T02:38Z
TLE epoch observation values (Epoch: 2025-09-17T02:38:40.48Z)
Latitude
0.00003°
Longitude
94.98458°
Altitude
658.639 km
Speed
7.536 km/s
True Right ascension
08h 43m 46s
True Declination
0° 00' 00"
Sunlit
Object was in daylight at epoch
Visualization orbit readout
Latitude
Unknown
Longitude
Unknown
Altitude
Unknown
Speed
Unknown
Apparent Right ascension
Unknown
Apparent Declination
Unknown
Sunlit
N/A
Visualization observer readout
Local Sidereal Time
17:43:11
Azimuth
Unknown
Elevation
Unknown
Doppler factor
Unknown
Orbital elements
Apogee altitude
696.481 km
Perigee altitude
640.217 km
Semi-major axis
7,046.486 km
Eccentricity
0.00399
Inclination
98.9344°
RAAN
130.9441°
Arg. of periapsis
56.7216°
True anomaly
303.39878°
Mean anomaly
303.7801°
Eccentric anomaly
303.58955°
Mean motion
3.66931 °/min
Orbital period
98.11 mins
BSTAR
0.0022612
Loading maneuver chart data...
Computing Atmospheric mass density...
Loading historical data...
Loading historical data...
Loading historical data...
Loading historical data...
Loading historical data...
Loading historical data...
Loading historical data...

Documentation

Showing up to 5 results
|